Dewpoint
-11 -10 -8 -9 -6 -3 -1 0 1 1 1 2 1 1 -2 -3 -3 -5 -6 -7 -7 -6 -7 -7 -8 -9 -10 -8 -9 -8 -9 -6 -3 -8 -10 -8 -8 -9 -9 -4 -5 -5 -3 3
-9 -10 -10 -6 -8 -3 0 0 1 0 1 2 2 -2 -2 -2 -2 -3 -4 -5 -6 -7 -5 -4 -6 -8 -12 -13 -9 -9 -7 -5 -5 -7 -7 -8 -8 -8 -7 -6 -5 -5 2 2
-7 -6 -8 -7 -5 -5 -0 -0 1 0 1 1 -1 -1 -1 -2 -3 -3 -3 -4 -5 -4 -3 -5 -2 -6 -9 -7 -7 -6 -6 -8 -6 -4 -7 -7 -5 -7 -7 -6 -1 -3 -1 -3
-5 -6 -7 -9 -5 -6 -2 -1 0 0 2 0 1 0 -0 -2 0 -3 -4 -2 -3 -4 -0 -4 -5 -6 -7 -9 -8 -6 -5 -6 -7 -8 -10 -9 -8 -8 -9 -9 -9 -5 -2 -7
-9 -9 -5 -6 -8 -6 -5 -1 -1 -1 -0 1 2 1 1 -1 -3 -0 1 1 -2 -0 1 -2 -3 -4 -5 -6 -8 -6 -6 -6 -7 2 -7 -7 -3 -5 -3 -6 -9 -9 -8 -9
-9 -9 -8 -5 -6 -7 -3 -3 -2 -1 -1 -0 -0 -1 -1 1 -0 0 1 -1 1 3 0 -2 -3 -3 -3 -3 -4 -5 -5 -4 -3 -1 -5 -5 -2 -0 -3 -6 -7 -7 -6 -8
-6 -6 -8 -9 -6 -4 -5 -3 -5 -2 -2 -4 -3 -3 -1 -0 -1 0 -2 0 1 -0 1 1 -1 -2 -3 -3 -3 -4 -3 -2 0 2 -1 2 -4 -7 -8 -7 -7 -8 -8 -8
-7 -6 -6 -7 -9 -7 -5 -4 -4 -3 -4 -6 -6 -6 -5 -4 -3 -1 0 1 1 2 1 2 2 -2 -3 -3 -4 -4 -5 -3 0 2 -2 -4 -7 -8 -8 -7 -6 -7 -5 -2
-8 -8 -9 -7 -7 -9 -6 -4 -4 -3 -3 -5 -8 -7 -7 -4 -4 -4 -2 0 1 1 1 3 1 -3 -5 -4 -3 -4 -4 -3 2 3 3 -0 -8 -8 -4 -4 -2 -2 -0 1
-7 -8 -9 -8 -8 -8 -7 -4 -4 -3 -3 -5 -5 -5 -4 -4 -2 -2 -4 -2 1 1 2 2 -0 -3 -1 0 0 1 1 4 3 1 -0 -5 -10 -9 -4 -2 -4 -2 -1 -1
-9 -9 -9 -9 -9 -10 -9 -5 -6 -4 -3 -5 -5 -4 -3 -4 -2 -1 -1 -0 1 1 2 2 -2 -3 -2 -1 -3 -4 -2 1 0 -1 -0 -2 -10 -3 -2 -3 -3 -3 -2 -1
-10 -9 -8 -8 -8 -9 -9 -5 -5 -6 -4 -4 -3 -3 -3 -3 -3 -3 -2 -0 -0 0 1 -1 -2 -1 -1 -3 -1 -6 -3 -5 -2 -2 -6 -4 -4 -4 -5 -4 -5 -1 1 1
-10 -11 -9 -10 -8 -9 -9 -6 -5 -4 -4 -6 -6 -6 -6 -9 -7 -4 -1 -1 -1 -0 0 -1 -1 -1 -4 -2 -4 -5 -6 -7 -3 -4 -5 -6 -6 -4 -2 -3 -2 0 0 1
-12 -10 -13 -12 -11 -8 -9 -6 -5 -5 -6 -5 -8 -5 -4 -3 -2 -3 -3 -3 -2 -1 -1 1 -1 -1 -2 -2 -3 -2 -5 -5 -4 -3 -3 -3 -2 -3 -3 -3 -1 0 0 2
-10 -9 -13 -13 -8 -6 -6 -7 -9 -8 -5 -6 -5 -5 -7 -3 -2 -2 -1 -1 -1 -0 -0 2 0 -3 -1 -3 -2 -3 -6 -4 -2 -0 -5 -3 -5 -7 -5 -6 -4 -0 0 1
-8 -9 -15 -10 -7 -6 -5 -5 -8 -9 -7 -4 -6 -4 -3 -6 -4 -0 -0 -1 0 -1 0 1 -2 -1 -2 -3 -3 -8 -8 -6 -6 -6 -8 -8 -8 -6 -5 -6 -5 -4 -1 0
-8 -9 -16 -8 -7 -6 -5 -6 -7 -12 -9 -4 -5 -6 -2 -3 -1 -1 -1 -1 -1 0 -1 -2 -3 -3 -2 -3 -1 -6 -8 -9 -9 -9 -9 -7 -7 -8 -8 -6 -3 -2 -3 -3
-8 -15 -11 -7 -5 -4 -5 -5 -5 -7 -5 -5 -5 -6 -2 -2 -1 -1 -1 -0 0 -1 -2 -1 -3 -3 -3 -2 -7 -9 -9 -9 -8 -8 -8 -6 -6 -6 -5 -4 -4 -3 -1 -0
-14 -11 -5 -4 -4 -4 -5 -6 -6 -5 -4 -5 -5 -5 -3 -1 -1 -1 -1 -0 -0 -1 -1 -2 -2 -3 -1 -4 -9 -8 -7 -7 -7 -7 -6 -5 -5 -6 -5 -4 -1 -1 -2 -0
-6 -4 -4 -6 -5 -8 -9 -7 -5 -4 -4 -4 -2 -4 -2 -1 -1 -1 -2 -2 -2 -1 -4 -3 -1 -3 -7 -7 -6 -5 -4 -5 -5 -4 -5 -5 -5 -4 -3 -4 -3 -3 -2 -0
-4 -6 -5 -6 -6 -6 -6 -3 -3 -4 -2 -3 -4 -4 -1 -2 -0 -2 -3 -2 -2 -1 -3 -2 -2 -3 -4 -3 -0 1 1 -0 -3 -3 -3 -2 -2 -2 -2 -1 -1 -1 -0 0
-6 -7 -4 -4 -4 -4 -3 -2 -2 -2 -2 -2 -3 -4 -3 -1 -1 -2 -3 -2 -3 -1 -1 -0 -1 -3 -3 1 1 0 0 0 0 -0 -0 -0 -0 -1 -1 -0 -0 -0 -1 -1
-6 -7 -4 -3 -3 -2 -2 -1 -2 -2 -3 -3 -3 -2 -1 -1 -1 -2 -3 -2 -2 -2 0 -2 -3 -2 -0 -0 0 0 -1 -1 -2 -1 -0 0 -0 -1 1 1 1 1 1 0
-6 -4 -2 -2 -2 -2 -4 -4 -3 -3 -3 -2 -3 -2 -2 -2 -2 -2 -1 -3 -3 -1 -1 -4 -3 -1 0 -1 -0 -2 -2 -2 -3 -2 -1 -1 0 -0 1 0 -0 -0 -0 -1
-3 -3 -2 -2 -3 -3 -3 -2 -1 -2 -2 -2 -2 -2 -3 -3 -2 -2 -2 -1 -1 -3 -3 -2 -0 -1 -1 -1 -2 -3 -3 -3 -4 -3 -2 -1 -1 0 1 1 -1 -3 -4 -4
-3 -3 -3 -3 -2 -2 -2 -2 -1 -1 -1 -1 -1 -0 -1 -1 -2 -2 -2 -3 -3 -3 -2 -1 -1 -2 -2 -2 -1 -2 -3 -4 -4 -3 -3 -3 -3 -2 -1 -2 -4 -4 -4 -4
-3 -4 -4 -2 -3 -2 -4 -4 -3 -2 -1 -1 -1 -1 -2 -1 -0 -1 -3 -3 -3 -1 -1 -1 -2 -3 -3 -3 -2 -2 -2 -3 -3 -3 -3 -3 -4 -3 -3 -3 -4 -4 -4 -5
Wind_Speed
12 12 12 12 13 12 12 11 5 8 17 12 7 11 11 9 14 10 14 11 15 17 17 18 20 18 15 1 4 11 9 7 11 15 3 4 10 14 14 11 12 11 11 15
9 9 10 8 8 10 9 6 9 7 22 7 11 15 13 22 19 14 11 12 11 10 13 9 14 18 23 25 14 8 6 7 11 16 10 9 10 12 11 8 7 15 12 14
8 8 7 7 5 11 11 4 3 8 21 13 15 18 20 20 16 23 23 14 14 13 15 14 9 12 5 6 13 7 5 14 14 13 13 5 7 10 8 10 11 14 18 21
10 8 5 8 9 9 14 7 4 7 3 12 9 16 12 18 13 17 11 8 18 14 7 12 16 17 18 18 13 7 5 15 16 15 13 11 14 18 18 20 21 19 24 23
10 10 7 5 10 9 13 4 6 4 5 6 8 12 14 22 21 9 6 15 15 7 11 15 14 14 12 12 7 12 6 12 8 4 10 12 15 17 16 21 23 22 25 32
10 10 12 9 9 11 9 12 12 4 5 5 9 14 10 8 16 10 18 16 12 11 17 19 18 16 18 16 14 13 11 8 10 18 16 13 16 14 20 22 21 20 22 24
12 11 12 15 15 14 15 11 10 5 10 12 13 10 10 9 13 16 18 20 18 8 6 9 17 20 19 21 20 21 19 11 3 7 10 15 16 7 11 15 14 14 18 19
15 15 14 12 16 18 18 15 12 6 11 19 17 20 17 16 15 16 13 18 20 6 3 2 6 10 11 17 20 19 17 15 9 7 13 17 15 14 16 17 15 13 10 9
14 15 18 18 16 18 20 18 17 12 9 14 26 23 21 15 14 14 13 15 13 14 3 5 5 6 6 4 4 9 17 14 7 6 5 7 4 5 5 4 11 6 5 6
17 18 19 19 18 18 20 19 15 16 12 24 20 12 10 10 8 8 14 8 8 16 4 7 7 9 3 5 5 1 9 9 13 11 10 9 5 7 5 10 4 2 8 10
18 19 18 18 19 19 20 20 21 20 15 26 21 15 15 17 11 8 3 6 7 6 6 4 4 6 7 6 7 4 9 6 8 8 11 14 7 4 11 4 12 14 15 15
18 19 19 18 19 20 20 22 20 22 22 17 13 15 21 24 24 21 8 7 6 7 4 6 4 5 4 8 7 11 11 12 8 5 5 4 5 7 9 10 12 13 15 19
23 21 21 20 19 20 22 23 19 17 18 26 32 31 30 34 34 26 19 11 7 7 9 6 4 6 4 6 9 11 10 12 7 11 11 16 19 18 15 16 14 10 7 16
26 23 22 21 19 20 21 23 20 20 12 9 20 9 16 16 18 26 34 35 23 23 24 13 5 5 2 7 8 8 8 6 10 13 16 19 17 25 22 15 12 14 10 12
26 23 22 19 17 18 20 21 22 22 20 6 12 20 25 17 21 26 24 31 30 18 6 5 5 4 4 7 7 9 13 14 10 11 16 13 21 21 16 14 14 15 13 10
25 23 20 17 14 12 15 9 19 23 21 7 5 7 12 21 17 16 21 28 28 14 7 6 4 5 5 7 11 13 19 21 22 21 22 20 23 20 18 19 20 20 15 12
23 21 18 18 15 16 16 6 6 14 22 4 5 5 4 8 13 15 19 20 10 10 7 5 8 10 7 8 15 23 25 24 25 25 22 22 23 19 16 15 15 14 17 17
22 18 14 13 15 17 23 14 8 16 17 6 3 5 4 6 4 3 4 5 6 7 5 3 5 3 7 6 19 20 22 22 24 24 21 23 20 16 18 18 18 16 13 10
17 12 11 10 8 10 15 18 20 9 6 4 5 5 3 5 3 2 2 2 2 0 3 3 4 5 7 17 19 21 19 17 20 16 12 12 16 19 20 15 12 11 11 11
15 14 6 5 8 8 11 7 7 5 8 9 4 6 4 4 3 1 3 2 1 2 4 3 4 7 27 23 23 22 22 21 19 19 22 22 23 21 19 20 18 15 12 11
14 7 5 6 15 12 8 7 9 9 5 10 11 15 3 3 2 2 3 1 1 3 2 3 3 5 3 4 9 10 10 8 13 17 18 17 17 16 13 11 11 12 10 12
9 7 8 13 6 5 5 4 5 5 5 6 6 9 8 5 2 2 4 2 1 4 1 3 4 3 2 7 8 6 6 5 2 2 4 4 6 8 8 5 5 7 10 13
6 1 4 7 8 8 5 5 3 3 5 7 7 5 5 4 4 1 3 4 4 0 3 4 3 2 1 5 7 4 7 6 5 3 2 3 5 8 10 9 7 6 9 12
3 5 4 4 3 4 2 3 2 2 2 8 9 5 3 3 4 2 3 3 2 3 3 4 3 4 4 4 3 3 5 5 6 5 3 3 4 8 8 11 8 5 8 11
4 3 2 3 2 2 2 0 1 2 7 9 6 3 2 2 3 3 3 3 5 4 4 3 4 4 5 4 3 3 4 5 6 3 1 3 5 6 10 13 10 9 11 11
3 3 2 2 3 1 2 1 1 2 6 3 1 2 3 5 3 5 6 3 5 2 1 4 3 3 4 5 5 4 3 3 3 3 5 6 7 7 10 12 12 11 10 10
3 3 3 2 3 3 2 3 2 4 3 1 2 3 4 0 3 4 4 3 2 5 4 2 2 5 8 10 7 7 4 1 2 3 4 4 5 7 8 10 11 12 12 13
Wind_Direction
266 267 270 261 249 245 242 222 230 202 192 201 218 230 229 243 242 236 251 268 264 267 268 271 270 266 260 353 294 270 253 271 254 257 262 289 268 269 260 245 252 240 262 269
282 272 261 269 249 214 221 230 236 209 195 230 229 243 243 242 247 239 235 237 238 254 261 269 258 265 265 269 256 261 209 232 260 248 208 209 233 235 252 272 275 262 271 271
267 271 269 238 254 212 211 218 229 204 206 245 249 257 255 246 247 249 246 247 264 258 256 252 265 268 275 286 260 254 233 255 257 267 285 335 235 224 234 258 257 265 257 278
254 263 277 239 225 225 221 224 234 220 208 226 223 242 266 245 232 234 233 251 239 241 248 261 260 263 265 264 258 237 237 259 266 266 275 276 275 271 270 262 258 256 269 266
264 249 240 244 224 226 227 245 240 263 294 215 225 233 228 247 250 220 226 233 253 249 228 247 269 286 271 267 264 245 226 253 268 256 266 268 269 261 253 261 261 261 262 266
266 258 235 227 219 226 237 239 253 268 255 276 251 246 243 265 272 261 240 240 236 243 238 270 270 268 269 266 263 262 261 260 253 257 256 265 264 250 242 257 253 251 257 272
261 269 254 232 225 231 237 247 256 270 266 250 253 261 249 264 271 261 269 253 243 269 225 265 267 253 255 250 245 242 243 223 255 273 254 255 273 239 254 259 266 263 265 273
244 248 257 258 233 234 246 243 237 243 256 267 269 257 268 283 273 264 255 247 245 241 314 202 250 240 242 239 235 232 228 233 238 241 253 269 247 236 265 263 279 263 269 290
255 252 247 247 247 239 244 247 236 236 266 253 259 266 271 271 275 284 270 286 252 226 212 214 222 232 226 228 197 236 225 226 209 213 240 252 293 144 171 261 267 153 273 323
248 251 252 250 246 242 243 248 238 233 245 260 263 250 266 277 266 270 284 275 222 199 213 210 231 240 148 217 198 200 198 195 218 233 254 269 254 233 227 252 289 359 331 324
248 250 253 253 253 245 241 248 243 239 252 259 264 265 263 263 259 261 343 319 231 192 219 214 215 243 202 225 182 201 209 199 216 238 250 266 225 156 225 337 318 308 308 301
255 251 253 253 250 243 239 244 242 245 247 257 281 263 255 259 261 276 267 270 325 302 211 221 237 215 194 226 240 205 245 231 262 257 268 36 187 239 259 275 290 302 300 299
252 254 250 253 251 241 239 240 236 236 255 273 266 265 266 262 254 251 248 242 230 251 311 283 247 246 232 231 240 249 242 250 250 267 253 255 256 280 275 277 270 229 297 306
246 248 250 252 251 242 239 237 234 229 250 264 273 283 260 261 256 245 239 246 250 271 294 274 258 250 232 263 270 251 262 271 251 261 264 268 280 278 279 282 260 250 281 302
238 239 244 247 248 240 236 238 238 233 222 277 293 291 284 269 264 243 236 230 233 239 256 237 232 255 256 244 281 255 243 242 246 254 257 243 268 276 285 285 272 257 281 304
231 230 236 236 240 236 223 232 243 232 226 255 276 299 272 285 290 241 234 228 224 212 219 230 238 241 245 266 263 271 247 241 248 256 266 275 276 278 276 275 275 272 265 274
214 222 227 226 243 236 193 215 240 207 201 242 269 261 262 253 247 237 236 229 192 202 227 240 256 241 218 264 267 258 259 256 261 264 273 275 268 266 274 272 265 269 276 277
203 213 217 237 235 222 212 217 189 179 177 210 256 268 273 211 240 230 193 171 181 203 237 217 242 238 234 258 260 277 270 264 265 267 263 257 268 279 280 277 271 268 262 253
189 197 212 201 196 197 219 219 245 219 211 227 220 258 283 189 204 139 129 171 184 84 243 239 238 231 232 248 280 288 286 267 263 263 271 251 247 275 274 268 255 268 273 236
167 173 159 178 197 182 198 189 203 226 208 222 263 232 245 220 179 77 127 154 269 239 235 175 235 254 254 277 286 289 291 268 262 264 263 262 267 267 262 252 254 266 267 228
154 164 174 157 152 157 184 208 192 192 212 207 226 218 206 199 212 156 217 192 281 256 149 235 236 260 270 271 316 315 319 296 257 255 265 269 266 263 256 251 247 256 235 210
153 152 143 149 172 201 226 201 194 220 221 185 195 184 191 157 188 180 185 219 195 248 76 243 252 253 244 339 344 340 354 19 13 338 295 288 269 247 233 222 148 145 180 181
150 167 239 185 169 217 237 194 194 208 177 181 171 149 139 137 196 170 189 217 232 289 233 241 254 1 21 349 341 9 22 29 28 29 90 63 97 116 137 142 164 175 151 141
217 217 220 245 165 245 255 302 347 68 142 151 162 122 144 163 183 174 221 223 246 261 265 252 318 5 352 1 359 10 28 34 20 10 39 159 181 160 157 154 156 168 179 177
242 230 257 239 306 309 325 329 307 68 140 140 127 122 188 163 200 205 234 221 231 229 255 329 18 6 359 10 3 5 38 29 2 3 50 146 155 160 177 175 171 162 162 161
260 261 261 210 247 161 234 234 151 94 159 145 146 149 209 215 213 197 215 235 232 245 302 333 342 336 344 345 338 337 338 38 40 95 104 105 108 134 158 165 154 159 162 165
225 232 245 282 317 268 216 218 235 190 170 239 242 225 231 33 223 215 209 235 321 341 326 300 314 322 320 319 316 318 300 277 171 174 158 144 141 144 147 155 157 161 159 158
Height
1508 1508 1508 1508 1509 1512 1514 1514 1516 1510 1514 1520 1511 1504 1504 1503 1501 1502 1501 1499 1494 1493 1492 1491 1489 1484 1479 1480 1478 1472 1468 1465 1466 1458 1455 1461 1459 1457 1455 1461 1462 1456 1460 1450
1505 1505 1505 1506 1507 1507 1513 1511 1509 1507 1510 1507 1504 1501 1499 1501 1497 1495 1492 1490 1489 1488 1489 1492 1483 1480 1479 1477 1477 1470 1468 1465 1462 1455 1458 1459 1457 1455 1458 1458 1461 1461 1466 1444
1501 1503 1501 1502 1505 1506 1509 1509 1506 1505 1505 1501 1499 1497 1493 1493 1495 1490 1488 1486 1486 1487 1486 1486 1483 1478 1476 1478 1476 1473 1472 1462 1459 1457 1451 1459 1461 1458 1459 1461 1462 1459 1452 1450
1500 1499 1499 1500 1502 1505 1507 1505 1499 1497 1495 1496 1497 1499 1493 1486 1489 1487 1485 1486 1482 1482 1490 1482 1478 1476 1475 1475 1474 1472 1470 1464 1460 1456 1455 1461 1460 1458 1458 1456 1454 1458 1445 1449
1496 1496 1497 1498 1501 1501 1503 1501 1499 1496 1494 1493 1493 1493 1485 1482 1478 1483 1485 1484 1479 1483 1483 1476 1473 1473 1472 1470 1465 1467 1466 1462 1461 1470 1462 1461 1461 1459 1461 1456 1450 1448 1445 1430
1492 1492 1493 1496 1498 1500 1500 1497 1496 1493 1490 1487 1489 1483 1483 1481 1481 1479 1480 1478 1480 1477 1475 1475 1472 1472 1471 1469 1467 1464 1464 1464 1465 1462 1455 1454 1453 1450 1448 1443 1439 1441 1437 1428
1487 1488 1489 1491 1493 1494 1495 1495 1496 1496 1483 1482 1480 1478 1479 1480 1479 1478 1475 1476 1475 1472 1472 1471 1470 1467 1463 1461 1459 1461 1460 1460 1469 1463 1456 1458 1433 1434 1437 1436 1435 1434 1431 1430
1482 1483 1485 1486 1488 1489 1490 1491 1492 1493 1486 1480 1474 1475 1474 1474 1472 1471 1470 1467 1469 1469 1470 1470 1464 1454 1451 1445 1446 1448 1452 1452 1458 1459 1442 1432 1427 1429 1430 1429 1428 1425 1426 1427
1476 1478 1480 1481 1482 1483 1484 1485 1487 1488 1487 1474 1475 1474 1473 1470 1468 1466 1464 1463 1464 1465 1467 1462 1457 1442 1433 1433 1435 1439 1442 1448 1457 1455 1448 1436 1419 1425 1432 1432 1425 1426 1427 1426
1472 1474 1475 1476 1477 1477 1479 1480 1482 1483 1479 1471 1473 1470 1468 1468 1468 1462 1459 1460 1461 1461 1459 1453 1445 1438 1441 1440 1440 1442 1442 1446 1446 1442 1439 1423 1420 1425 1433 1431 1424 1426 1426 1425
1464 1467 1468 1470 1471 1471 1474 1474 1476 1477 1472 1468 1470 1470 1468 1467 1467 1462 1461 1461 1454 1454 1450 1447 1437 1434 1433 1434 1431 1433 1435 1439 1437 1435 1436 1430 1418 1427 1428 1422 1423 1424 1425 1424
1456 1459 1462 1463 1465 1466 1468 1468 1470 1471 1472 1465 1462 1462 1462 1464 1463 1464 1462 1457 1457 1448 1443 1440 1434 1432 1432 1428 1427 1426 1429 1426 1426 1429 1418 1421 1422 1421 1422 1422 1422 1424 1424 1421
1450 1453 1456 1458 1459 1460 1462 1462 1466 1467 1466 1462 1458 1454 1455 1456 1455 1457 1456 1452 1452 1449 1446 1440 1433 1430 1427 1424 1421 1421 1422 1425 1425 1425 1420 1419 1421 1421 1421 1420 1419 1420 1418 1419
1443 1447 1449 1451 1453 1454 1456 1457 1460 1463 1463 1457 1448 1447 1446 1446 1445 1445 1445 1446 1448 1447 1446 1441 1432 1429 1429 1423 1420 1420 1421 1422 1420 1418 1418 1418 1418 1417 1416 1415 1414 1414 1414 1410
1436 1440 1443 1446 1448 1449 1451 1453 1454 1456 1461 1451 1445 1443 1438 1438 1434 1435 1437 1439 1441 1443 1442 1435 1430 1427 1428 1423 1423 1416 1417 1416 1415 1410 1412 1413 1409 1410 1411 1411 1409 1409 1409 1407
1429 1434 1438 1442 1444 1446 1447 1449 1448 1450 1455 1456 1445 1436 1431 1429 1428 1428 1428 1431 1433 1433 1434 1427 1425 1426 1427 1416 1408 1409 1409 1409 1408 1405 1406 1407 1404 1405 1406 1405 1405 1404 1403 1402
1425 1430 1434 1438 1441 1441 1444 1444 1443 1442 1450 1452 1445 1429 1424 1422 1423 1422 1421 1422 1424 1426 1425 1423 1422 1423 1424 1414 1406 1401 1402 1402 1401 1400 1401 1400 1399 1398 1398 1398 1398 1398 1397 1396
1422 1428 1432 1435 1436 1437 1438 1440 1439 1441 1447 1450 1444 1429 1423 1419 1419 1418 1416 1416 1420 1422 1421 1422 1419 1421 1419 1405 1390 1393 1392 1393 1393 1393 1394 1393 1394 1394 1393 1393 1392 1391 1391 1391
1422 1427 1430 1431 1432 1433 1434 1438 1439 1443 1447 1442 1436 1425 1416 1418 1418 1418 1419 1419 1419 1421 1418 1419 1418 1411 1407 1389 1386 1385 1385 1386 1385 1386 1387 1387 1388 1388 1388 1388 1388 1387 1387 1386
1421 1425 1427 1428 1428 1431 1434 1439 1441 1440 1437 1436 1427 1422 1418 1419 1417 1418 1419 1419 1418 1419 1412 1412 1410 1396 1385 1385 1384 1381 1379 1378 1380 1381 1380 1381 1381 1380 1381 1381 1382 1383 1382 1383
1421 1424 1425 1426 1428 1431 1433 1432 1432 1429 1426 1421 1415 1415 1415 1417 1417 1417 1419 1419 1420 1412 1403 1407 1398 1384 1381 1382 1380 1379 1376 1374 1374 1375 1375 1375 1374 1374 1375 1376 1377 1376 1377 1378
1420 1422 1424 1426 1428 1429 1428 1418 1417 1414 1406 1408 1408 1411 1412 1415 1417 1416 1420 1417 1419 1411 1408 1405 1390 1379 1380 1381 1378 1377 1376 1374 1374 1372 1372 1371 1370 1371 1373 1374 1373 1373 1374 1376
1421 1423 1422 1421 1420 1418 1412 1405 1403 1402 1404 1406 1407 1409 1411 1415 1417 1416 1416 1416 1412 1409 1404 1390 1378 1378 1381 1379 1371 1377 1377 1375 1374 1372 1371 1371 1371 1371 1372 1374 1375 1376 1377 1379
1421 1420 1414 1413 1408 1406 1402 1401 1400 1403 1404 1405 1406 1409 1410 1413 1414 1413 1413 1408 1407 1402 1393 1380 1376 1381 1381 1380 1379 1379 1377 1376 1375 1373 1372 1372 1373 1373 1374 1375 1377 1378 1379 1381
1417 1415 1409 1408 1408 1407 1406 1405 1405 1404 1405 1406 1408 1409 1410 1410 1410 1411 1408 1405 1397 1391 1382 1377 1382 1382 1381 1381 1380 1379 1378 1377 1376 1375 1374 1373 1373 1374 1374 1375 1377 1379 1380 1382
1415 1413 1411 1409 1408 1407 1407 1407 1406 1405 1406 1406 1407 1406 1406 1405 1404 1403 1400 1394 1387 1381 1382 1384 1384 1383 1382 1381 1380 1379 1378 1377 1377 1376 1376 1376 1375 1375 1376 1377 1378 1380 1382 1384
1413 1411 1410 1409 1409 1407 1407 1407 1407 1407 1408 1406 1405 1405 1399 1399 1395 1393 1388 1386 1384 1386 1386 1385 1384 1384 1382 1381 1380 1379 1378 1378 1378 1378 1378 1378 1378 1378 1378 1379 1380 1382 1383 1385